| time (UTC) | temp F | wind direction | speed MPH | gust MPH | rain 1hr in | rain 24hr in | rain mn in | humidity % | barometer mb |
| 20260506181725 | 53 | 257 | 3.0 | 7.0 | 0.00 | 0.00 | 0.00 | 87 | 1019.8 |
| 20260506181219 | 53 | 248 | 3.0 | 8.0 | 0.00 | 0.00 | 0.00 | 87 | 1019.8 |
| 20260506180712 | 53 | 253 | 3.0 | 9.0 | 0.00 | 0.00 | 0.00 | 87 | 1019.7 |
| 20260506180207 | 53 | 253 | 3.0 | 8.0 | 0.00 | 0.00 | 0.00 | 87 | 1019.8 |
| 20260506175701 | 53 | 252 | 2.0 | 8.0 | 0.00 | 0.00 | 0.00 | 87 | 1019.8 |
| 20260506175155 | 53 | 223 | 3.0 | 8.0 | 0.00 | 0.00 | 0.00 | 87 | 1019.9 |
| 20260506174649 | 53 | 244 | 4.0 | 9.0 | 0.00 | 0.00 | 0.00 | 87 | 1019.8 |
| 20260506174142 | 53 | 255 | 4.0 | 8.0 | 0.00 | 0.00 | 0.00 | 87 | 1019.8 |
| 20260506173637 | 53 | 273 | 4.0 | 8.0 | 0.00 | 0.00 | 0.00 | 86 | 1019.8 |
| 20260506172625 | 53 | 257 | 4.0 | 9.0 | 0.00 | 0.00 | 0.00 | 86 | 1019.9 |
| 20260506172118 | 53 | 256 | 3.0 | 8.0 | 0.00 | 0.00 | 0.00 | 86 | 1019.8 |
| 20260506171617 | 53 | 268 | 4.0 | 10.0 | 0.00 | 0.00 | 0.00 | 85 | 1019.7 |
| 20260506171117 | 53 | 271 | 3.0 | 10.0 | 0.00 | 0.00 | 0.00 | 85 | 1019.7 |
| 20260506170617 | 53 | 298 | 5.0 | 10.0 | 0.00 | 0.00 | 0.00 | 85 | 1019.6 |
| 20260506170122 | 53 | 257 | 5.0 | 10.0 | 0.00 | 0.00 | 0.00 | 84 | 1019.5 |
| 20260506165617 | 53 | 235 | 3.0 | 9.0 | 0.00 | 0.00 | 0.00 | 84 | 1019.5 |
| 20260506165117 | 53 | 240 | 3.0 | 8.0 | 0.00 | 0.00 | 0.00 | 83 | 1019.5 |
| 20260506164617 | 53 | 250 | 3.0 | 8.0 | 0.00 | 0.00 | 0.00 | 83 | 1019.5 |
| 20260506164117 | 53 | 254 | 3.0 | 8.0 | 0.00 | 0.00 | 0.00 | 83 | 1019.4 |
| 20260506163616 | 53 | 272 | 3.0 | 9.0 | 0.00 | 0.00 | 0.00 | 83 | 1019.3 |
| 20260506163116 | 53 | 246 | 2.0 | 9.0 | 0.00 | 0.00 | 0.00 | 83 | 1019.3 |
| 20260506162115 | 53 | 246 | 2.0 | 7.0 | 0.00 | 0.00 | 0.00 | 83 | 1019.4 |
| 20260506161615 | 53 | 244 | 1.0 | 4.0 | 0.00 | 0.00 | 0.00 | 83 | 1019.3 |
| 20260506161113 | 53 | 247 | 2.0 | 7.0 | 0.00 | 0.00 | 0.00 | 82 | 1019.3 |
| 20260506160116 | 53 | 206 | 2.0 | 5.0 | 0.00 | 0.00 | 0.00 | 82 | 1019.3 |
| 20260506155616 | 53 | 250 | 2.0 | 5.0 | 0.00 | 0.00 | 0.00 | 82 | 1019.3 |
| 20260506153610 | 53 | 240 | 3.0 | 10.0 | 0.00 | 0.00 | 0.00 | 81 | 1019.2 |
| 20260506152610 | 53 | 271 | 2.0 | 7.0 | 0.00 | 0.00 | 0.00 | 81 | 1019.2 |
| 20260506152108 | 53 | 233 | 2.0 | 6.0 | 0.00 | 0.00 | 0.00 | 81 | 1019.1 |
| 20260506151609 | 53 | 270 | 2.0 | 6.0 | 0.00 | 0.00 | 0.00 | 81 | 1019.1 |
| 20260506151109 | 53 | 273 | 3.0 | 5.0 | 0.00 | 0.00 | 0.00 | 81 | 1019.0 |
| 20260506150608 | 53 | 230 | 2.0 | 5.0 | 0.00 | 0.00 | 0.00 | 81 | 1019.0 |
| 20260506145609 | 53 | 15 | 2.0 | 7.0 | 0.00 | 0.00 | 0.00 | 81 | 1018.9 |
| 20260506145108 | 53 | 261 | 2.0 | 7.0 | 0.00 | 0.00 | 0.00 | 81 | 1018.9 |
| 20260506144608 | 53 | 246 | 1.0 | 7.0 | 0.00 | 0.00 | 0.00 | 81 | 1018.7 |
| 20260506144108 | 53 | 269 | 0.0 | 7.0 | 0.00 | 0.00 | 0.00 | 81 | 1018.7 |
| 20260506143608 | 53 | 269 | 1.0 | 7.0 | 0.00 | 0.00 | 0.00 | 81 | 1018.6 |
| 20260506143108 | 53 | 269 | 1.0 | 9.0 | 0.00 | 0.00 | 0.00 | 81 | 1018.6 |
| 20260506142605 | 53 | 246 | 1.0 | 9.0 | 0.00 | 0.00 | 0.00 | 81 | 1018.5 |
| 20260506141554 | 53 | 245 | 1.0 | 4.0 | 0.00 | 0.00 | 0.00 | 81 | 1018.4 |
| 20260506141048 | 53 | 245 | 1.0 | 4.0 | 0.00 | 0.00 | 0.00 | 81 | 1018.4 |
| 20260506140036 | 53 | 208 | 1.0 | 6.0 | 0.00 | 0.00 | 0.00 | 81 | 1018.4 |
| 20260506135529 | 53 | 249 | 2.0 | 6.0 | 0.00 | 0.00 | 0.00 | 81 | 1018.4 |
| 20260506135028 | 53 | 270 | 2.0 | 7.0 | 0.00 | 0.00 | 0.00 | 81 | 1018.4 |
| 20260506134529 | 53 | 259 | 2.0 | 7.0 | 0.00 | 0.00 | 0.00 | 81 | 1018.2 |
| 20260506134026 | 53 | 250 | 3.0 | 7.0 | 0.00 | 0.00 | 0.00 | 81 | 1018.2 |
| 20260506133527 | 53 | 243 | 2.0 | 7.0 | 0.00 | 0.00 | 0.00 | 81 | 1018.2 |
| 20260506133025 | 53 | 267 | 1.0 | 7.0 | 0.00 | 0.00 | 0.00 | 81 | 1017.9 |
| 20260506132525 | 53 | 266 | 0.0 | 4.0 | 0.00 | 0.00 | 0.00 | 81 | 1017.8 |
| 20260506131530 | 53 | 247 | 0.0 | 3.0 | 0.00 | 0.00 | 0.00 | 81 | 1018.0 |
| 20260506125516 | 53 | 254 | 0.0 | 3.0 | 0.00 | 0.00 | 0.00 | 81 | 1017.7 |
| 20260506125015 | 53 | 254 | 1.0 | 7.0 | 0.00 | 0.00 | 0.00 | 81 | 1017.7 |
| 20260506124510 | 53 | 254 | 2.0 | 7.0 | 0.00 | 0.00 | 0.00 | 81 | 1017.9 |
| 20260506123009 | 53 | 240 | 1.0 | 3.0 | 0.00 | 0.00 | 0.00 | 81 | 1017.9 |
| 20260506122509 | 53 | 240 | 1.0 | 3.0 | 0.00 | 0.00 | 0.00 | 81 | 1017.9 |
| 20260506122007 | 53 | 281 | 1.0 | 3.0 | 0.00 | 0.00 | 0.00 | 81 | 1017.7 |
| 20260506120458 | 53 | 246 | 3.0 | 8.0 | 0.00 | 0.00 | 0.00 | 81 | 1017.8 |
| 20260506115446 | 53 | 268 | 3.0 | 7.0 | 0.00 | 0.00 | 0.00 | 81 | 1017.8 |
| 20260506114939 | 53 | 230 | 3.0 | 7.0 | 0.00 | 0.00 | 0.00 | 81 | 1017.6 |
| 20260506114433 | 53 | 259 | 3.0 | 7.0 | 0.00 | 0.00 | 0.00 | 81 | 1017.5 |
| 20260506113927 | 53 | 263 | 3.0 | 7.0 | 0.00 | 0.00 | 0.00 | 81 | 1017.4 |
| 20260506113422 | 53 | 273 | 2.0 | 7.0 | 0.00 | 0.00 | 0.00 | 81 | 1017.5 |
| 20260506112915 | 53 | 231 | 2.0 | 7.0 | 0.00 | 0.00 | 0.00 | 81 | 1017.5 |
| 20260506112409 | 53 | 245 | 3.0 | 7.0 | 0.00 | 0.00 | 0.00 | 81 | 1017.6 |
| 20260506111903 | 53 | 291 | 2.0 | 6.0 | 0.00 | 0.00 | 0.00 | 81 | 1017.6 |
| 20260506111357 | 53 | 289 | 2.0 | 7.0 | 0.00 | 0.00 | 0.00 | 81 | 1017.6 |
| 20260506110852 | 53 | 269 | 3.0 | 7.0 | 0.00 | 0.00 | 0.00 | 81 | 1017.6 |
| 20260506110345 | 53 | 273 | 2.0 | 6.0 | 0.00 | 0.00 | 0.00 | 81 | 1017.5 |
| 20260506105840 | 53 | 247 | 2.0 | 6.0 | 0.00 | 0.00 | 0.00 | 82 | 1017.5 |
| 20260506105333 | 53 | 290 | 2.0 | 7.0 | 0.00 | 0.00 | 0.00 | 82 | 1017.5 |
| 20260506104827 | 53 | 299 | 3.0 | 7.0 | 0.00 | 0.00 | 0.00 | 82 | 1017.6 |
| 20260506104321 | 53 | 281 | 3.0 | 7.0 | 0.00 | 0.00 | 0.00 | 82 | 1017.4 |
| 20260506103309 | 53 | 256 | 2.0 | 6.0 | 0.00 | 0.00 | 0.00 | 82 | 1017.3 |
| 20260506102803 | 53 | 270 | 2.0 | 6.0 | 0.00 | 0.00 | 0.00 | 82 | 1017.3 |
| 20260506102257 | 53 | 248 | 1.0 | 4.0 | 0.00 | 0.00 | 0.00 | 82 | 1017.3 |
| 20260506101751 | 53 | 248 | 2.0 | 4.0 | 0.00 | 0.00 | 0.00 | 82 | 1017.2 |
| 20260506101246 | 53 | 248 | 2.0 | 5.0 | 0.00 | 0.00 | 0.00 | 82 | 1017.2 |
| 20260506100233 | 53 | 261 | 2.0 | 4.0 | 0.00 | 0.00 | 0.00 | 83 | 1017.1 |
| 20260506095727 | 53 | 284 | 2.0 | 4.0 | 0.00 | 0.00 | 0.00 | 83 | 1017.0 |
| 20260506095221 | 53 | 291 | 1.0 | 3.0 | 0.00 | 0.00 | 0.00 | 83 | 1017.1 |
| 20260506094716 | 53 | 291 | 2.0 | 4.0 | 0.00 | 0.00 | 0.00 | 83 | 1017.1 |
| 20260506093704 | 53 | 243 | 3.0 | 8.0 | 0.00 | 0.00 | 0.00 | 83 | 1017.2 |
| 20260506092652 | 53 | 269 | 3.0 | 8.0 | 0.00 | 0.00 | 0.00 | 83 | 1017.1 |
| 20260506091640 | 53 | 286 | 3.0 | 8.0 | 0.00 | 0.00 | 0.00 | 83 | 1017.0 |
| 20260506091133 | 53 | 253 | 3.0 | 6.0 | 0.00 | 0.00 | 0.00 | 83 | 1017.0 |
| 20260506090627 | 53 | 250 | 3.0 | 6.0 | 0.00 | 0.00 | 0.00 | 83 | 1017.0 |
| 20260506085616 | 54 | 244 | 2.0 | 5.0 | 0.00 | 0.00 | 0.00 | 83 | 1016.9 |
| 20260506085109 | 54 | 229 | 2.0 | 8.0 | 0.00 | 0.00 | 0.00 | 83 | 1016.9 |
| 20260506082559 | 54 | 250 | 3.0 | 9.0 | 0.00 | 0.00 | 0.00 | 82 | 1016.8 |
| 20260506082059 | 54 | 237 | 2.0 | 6.0 | 0.00 | 0.00 | 0.00 | 82 | 1016.7 |
| 20260506081059 | 54 | 245 | 3.0 | 8.0 | 0.00 | 0.00 | 0.00 | 82 | 1016.8 |
| 20260506073054 | 54 | 242 | 1.0 | 6.0 | 0.00 | 0.00 | 0.00 | 82 | 1016.3 |
| 20260506072550 | 54 | 218 | 1.0 | 6.0 | 0.00 | 0.00 | 0.00 | 81 | 1016.3 |
| 20260506071048 | 54 | 243 | 2.0 | 7.0 | 0.00 | 0.00 | 0.00 | 81 | 1016.3 |
| 20260506070548 | 54 | 273 | 2.0 | 7.0 | 0.00 | 0.00 | 0.00 | 81 | 1016.2 |
| 20260506050525 | 55 | 250 | 3.0 | 8.0 | 0.00 | 0.00 | 0.00 | 80 | 1016.1 |
| 20260506045025 | 55 | 237 | 3.0 | 8.0 | 0.00 | 0.00 | 0.00 | 80 | 1016.0 |
| 20260506044524 | 55 | 265 | 3.0 | 8.0 | 0.00 | 0.00 | 0.00 | 80 | 1016.1 |
| 20260506044025 | 55 | 270 | 3.0 | 6.0 | 0.00 | 0.00 | 0.00 | 80 | 1016.0 |
| 20260506043524 | 55 | 279 | 2.0 | 5.0 | 0.00 | 0.00 | 0.00 | 80 | 1016.0 |
| 20260506042524 | 55 | 259 | 4.0 | 9.0 | 0.00 | 0.00 | 0.00 | 80 | 1015.9 |
| 20260506041525 | 55 | 256 | 2.0 | 5.0 | 0.00 | 0.00 | 0.00 | 80 | 1015.7 |
| 20260506041025 | 55 | 249 | 2.0 | 5.0 | 0.00 | 0.00 | 0.00 | 80 | 1015.6 |
| 20260506040525 | 55 | 255 | 1.0 | 3.0 | 0.00 | 0.00 | 0.00 | 80 | 1015.5 |
| 20260506040024 | 55 | 245 | 1.0 | 10.0 | 0.00 | 0.00 | 0.00 | 80 | 1015.5 |
| 20260506035524 | 55 | 245 | 3.0 | 10.0 | 0.00 | 0.00 | 0.00 | 80 | 1015.4 |
| 20260506035022 | 55 | 244 | 4.0 | 10.0 | 0.00 | 0.00 | 0.00 | 80 | 1015.4 |
| 20260506034522 | 55 | 257 | 3.0 | 10.0 | 0.00 | 0.00 | 0.00 | 80 | 1015.4 |
| 20260506034016 | 55 | 247 | 2.0 | 8.0 | 0.00 | 0.00 | 0.00 | 80 | 1015.2 |
| 20260506033513 | 55 | 292 | 2.0 | 8.0 | 0.00 | 0.00 | 0.00 | 80 | 1015.1 |
| 20260506033012 | 55 | 246 | 3.0 | 8.0 | 0.00 | 0.00 | 0.00 | 80 | 1015.2 |
| 20260506032518 | 55 | 233 | 3.0 | 8.0 | 0.00 | 0.00 | 0.00 | 79 | 1015.2 |
| 20260506032018 | 55 | 268 | 2.0 | 7.0 | 0.00 | 0.00 | 0.00 | 79 | 1015.2 |
| 20260506031512 | 55 | 275 | 3.0 | 7.0 | 0.00 | 0.00 | 0.00 | 79 | 1015.2 |
| 20260506031013 | 56 | 267 | 3.0 | 7.0 | 0.00 | 0.00 | 0.00 | 79 | 1015.2 |
| 20260506030512 | 56 | 222 | 3.0 | 8.0 | 0.00 | 0.00 | 0.00 | 79 | 1015.2 |
| 20260506030012 | 56 | 267 | 3.0 | 8.0 | 0.00 | 0.00 | 0.00 | 78 | 1015.3 |
| 20260506025512 | 56 | 245 | 3.0 | 8.0 | 0.00 | 0.00 | 0.00 | 78 | 1015.3 |
| 20260506025012 | 56 | 255 | 3.0 | 8.0 | 0.00 | 0.00 | 0.00 | 78 | 1015.2 |
| 20260506024006 | 56 | 299 | 2.0 | 8.0 | 0.00 | 0.00 | 0.00 | 79 | 1015.0 |
| 20260506023506 | 56 | 287 | 2.0 | 8.0 | 0.00 | 0.00 | 0.00 | 79 | 1015.1 |
| 20260506023007 | 56 | 267 | 2.0 | 8.0 | 0.00 | 0.00 | 0.00 | 79 | 1015.1 |
| 20260506022507 | 56 | 240 | 2.0 | 4.0 | 0.00 | 0.00 | 0.00 | 78 | 1015.0 |
| 20260506022010 | 56 | 238 | 2.0 | 4.0 | 0.00 | 0.00 | 0.00 | 78 | 1015.0 |
| 20260506021508 | 56 | 271 | 2.0 | 9.0 | 0.00 | 0.00 | 0.00 | 79 | 1015.0 |
| 20260506020502 | 56 | 246 | 3.0 | 7.0 | 0.00 | 0.00 | 0.00 | 79 | 1015.1 |
| 20260506015955 | 56 | 240 | 2.0 | 7.0 | 0.00 | 0.00 | 0.00 | 79 | 1015.2 |
| 20260506014943 | 57 | 245 | 3.0 | 8.0 | 0.00 | 0.00 | 0.00 | 78 | 1015.1 |
| 20260506014438 | 57 | 246 | 3.0 | 8.0 | 0.00 | 0.00 | 0.00 | 78 | 1015.0 |
| 20260506013931 | 57 | 263 | 4.0 | 8.0 | 0.00 | 0.00 | 0.00 | 79 | 1015.1 |
| 20260506013425 | 57 | 230 | 3.0 | 8.0 | 0.00 | 0.00 | 0.00 | 79 | 1015.1 |
| 20260506012414 | 57 | 251 | 2.0 | 9.0 | 0.00 | 0.00 | 0.00 | 79 | 1015.1 |
| 20260506011907 | 57 | 257 | 2.0 | 7.0 | 0.00 | 0.00 | 0.00 | 79 | 1015.1 |
| 20260506010855 | 57 | 269 | 3.0 | 10.0 | 0.00 | 0.00 | 0.00 | 79 | 1015.2 |
| 20260506010350 | 57 | 294 | 3.0 | 10.0 | 0.00 | 0.00 | 0.00 | 79 | 1015.1 |
| 20260506005844 | 58 | 283 | 3.0 | 7.0 | 0.00 | 0.00 | 0.00 | 79 | 1015.1 |
| 20260506005337 | 58 | 273 | 2.0 | 7.0 | 0.00 | 0.00 | 0.00 | 79 | 1015.1 |
| 20260506004831 | 58 | 237 | 3.0 | 8.0 | 0.00 | 0.00 | 0.00 | 79 | 1015.1 |
| 20260506003819 | 57 | 279 | 3.0 | 8.0 | 0.00 | 0.00 | 0.00 | 79 | 1015.1 |
| 20260506003313 | 57 | 273 | 4.0 | 8.0 | 0.00 | 0.00 | 0.00 | 78 | 1015.2 |
| 20260506002302 | 58 | 227 | 3.0 | 7.0 | 0.00 | 0.00 | 0.00 | 79 | 1015.1 |
| 20260506001755 | 58 | 236 | 3.0 | 7.0 | 0.00 | 0.00 | 0.00 | 79 | 1015.2 |
| 20260506000743 | 58 | 246 | 3.0 | 8.0 | 0.00 | 0.00 | 0.00 | 78 | 1015.2 |
| 20260506000240 | 58 | 229 | 4.0 | 8.0 | 0.00 | 0.00 | 0.00 | 78 | 1015.3 |
| 20260505235731 | 58 | 232 | 4.0 | 9.0 | 0.00 | 0.00 | 0.00 | 77 | 1015.2 |
| 20260505235225 | 58 | 232 | 3.0 | 9.0 | 0.00 | 0.00 | 0.00 | 78 | 1015.2 |
| 20260505234719 | 58 | 243 | 4.0 | 9.0 | 0.00 | 0.00 | 0.00 | 78 | 1015.2 |
| 20260505234213 | 58 | 246 | 4.0 | 9.0 | 0.00 | 0.00 | 0.00 | 78 | 1015.3 |
| 20260505233707 | 58 | 292 | 4.0 | 9.0 | 0.00 | 0.00 | 0.00 | 78 | 1015.4 |
| 20260505233201 | 58 | 260 | 3.0 | 7.0 | 0.00 | 0.00 | 0.00 | 78 | 1015.4 |
| 20260505232655 | 58 | 222 | 3.0 | 7.0 | 0.00 | 0.00 | 0.00 | 79 | 1015.4 |
| 20260505231644 | 58 | 242 | 6.0 | 11.0 | 0.00 | 0.00 | 0.00 | 77 | 1015.5 |
| 20260505231138 | 58 | 283 | 6.0 | 10.0 | 0.00 | 0.00 | 0.00 | 78 | 1015.5 |
| 20260505230631 | 58 | 246 | 5.0 | 9.0 | 0.00 | 0.00 | 0.00 | 77 | 1015.5 |
| 20260505225625 | 58 | 236 | 3.0 | 8.0 | 0.00 | 0.00 | 0.00 | 78 | 1015.6 |
| 20260505225113 | 58 | 287 | 4.0 | 8.0 | 0.00 | 0.00 | 0.00 | 78 | 1015.6 |
| 20260505224607 | 58 | 269 | 4.0 | 10.0 | 0.00 | 0.00 | 0.00 | 77 | 1015.6 |
| 20260505224101 | 58 | 294 | 5.0 | 10.0 | 0.00 | 0.00 | 0.00 | 77 | 1015.6 |
| 20260505223555 | 58 | 262 | 5.0 | 10.0 | 0.00 | 0.00 | 0.00 | 77 | 1015.7 |
| 20260505223050 | 58 | 259 | 5.0 | 10.0 | 0.00 | 0.00 | 0.00 | 77 | 1015.7 |
| 20260505222543 | 58 | 292 | 6.0 | 10.0 | 0.00 | 0.00 | 0.00 | 77 | 1015.7 |
| 20260505222038 | 59 | 252 | 5.0 | 9.0 | 0.00 | 0.00 | 0.00 | 77 | 1015.7 |
| 20260505221531 | 59 | 258 | 4.0 | 9.0 | 0.00 | 0.00 | 0.00 | 77 | 1015.8 |
| 20260505221025 | 59 | 263 | 3.0 | 9.0 | 0.00 | 0.00 | 0.00 | 77 | 1015.8 |
| 20260505220519 | 59 | 250 | 4.0 | 9.0 | 0.00 | 0.00 | 0.00 | 77 | 1015.8 |
| 20260505220013 | 58 | 279 | 5.0 | 11.0 | 0.00 | 0.00 | 0.00 | 77 | 1015.9 |
| 20260505215507 | 59 | 244 | 5.0 | 10.0 | 0.00 | 0.00 | 0.00 | 76 | 1015.8 |
| 20260505215001 | 59 | 209 | 4.0 | 12.0 | 0.00 | 0.00 | 0.00 | 77 | 1015.8 |
| 20260505214450 | 59 | 265 | 5.0 | 12.0 | 0.00 | 0.00 | 0.00 | 77 | 1015.7 |
| 20260505213950 | 59 | 220 | 6.0 | 12.0 | 0.00 | 0.00 | 0.00 | 77 | 1015.9 |
| 20260505213450 | 58 | 218 | 7.0 | 13.0 | 0.00 | 0.00 | 0.00 | 76 | 1015.8 |
| 20260505212451 | 59 | 257 | 5.0 | 11.0 | 0.00 | 0.00 | 0.00 | 77 | 1015.9 |
| 20260505211450 | 59 | 309 | 6.0 | 12.0 | 0.00 | 0.00 | 0.00 | 75 | 1015.8 |
| 20260505210950 | 59 | 288 | 4.0 | 12.0 | 0.00 | 0.00 | 0.00 | 76 | 1015.8 |
| 20260505205948 | 59 | 283 | 6.0 | 11.0 | 0.00 | 0.00 | 0.00 | 78 | 1015.8 |
| 20260505205448 | 59 | 259 | 5.0 | 11.0 | 0.00 | 0.00 | 0.00 | 77 | 1015.8 |
| 20260505204948 | 59 | 350 | 6.0 | 11.0 | 0.00 | 0.00 | 0.00 | 78 | 1015.9 |
| 20260505203943 | 59 | 271 | 6.0 | 11.0 | 0.00 | 0.00 | 0.00 | 77 | 1016.0 |
| 20260505202944 | 59 | 225 | 5.0 | 12.0 | 0.00 | 0.00 | 0.00 | 77 | 1015.9 |
| 20260505202444 | 58 | 252 | 5.0 | 12.0 | 0.00 | 0.00 | 0.00 | 77 | 1015.9 |
| 20260505201944 | 58 | 290 | 5.0 | 10.0 | 0.00 | 0.00 | 0.00 | 77 | 1015.9 |
| 20260505201444 | 58 | 292 | 5.0 | 10.0 | 0.00 | 0.00 | 0.00 | 77 | 1015.8 |
| 20260505195944 | 58 | 240 | 5.0 | 9.0 | 0.00 | 0.00 | 0.00 | 77 | 1015.9 |
| 20260505195443 | 58 | 251 | 5.0 | 10.0 | 0.00 | 0.00 | 0.00 | 77 | 1015.8 |
| 20260505194943 | 58 | 244 | 5.0 | 11.0 | 0.00 | 0.00 | 0.00 | 76 | 1015.7 |
| 20260505194443 | 59 | 224 | 4.0 | 11.0 | 0.00 | 0.00 | 0.00 | 76 | 1015.7 |
| 20260505193944 | 59 | 271 | 3.0 | 10.0 | 0.00 | 0.00 | 0.00 | 76 | 1015.7 |
| 20260505193444 | 59 | 298 | 3.0 | 7.0 | 0.00 | 0.00 | 0.00 | 76 | 1015.6 |
| 20260505192944 | 59 | 280 | 4.0 | 9.0 | 0.00 | 0.00 | 0.00 | 77 | 1015.7 |
| 20260505192443 | 58 | 290 | 5.0 | 10.0 | 0.00 | 0.00 | 0.00 | 77 | 1015.6 |
| 20260505191943 | 58 | 250 | 4.0 | 10.0 | 0.00 | 0.00 | 0.00 | 76 | 1015.6 |
| 20260505191442 | 59 | 225 | 4.0 | 8.0 | 0.00 | 0.00 | 0.00 | 77 | 1015.7 |
| 20260505190430 | 58 | 232 | 4.0 | 10.0 | 0.00 | 0.00 | 0.00 | 76 | 1015.6 |
| 20260505185419 | 58 | 286 | 3.0 | 8.0 | 0.00 | 0.00 | 0.00 | 77 | 1015.5 |
| 20260505184411 | 58 | 252 | 4.0 | 8.0 | 0.00 | 0.00 | 0.00 | 77 | 1015.5 |
| 20260505183912 | 58 | 238 | 3.0 | 7.0 | 0.00 | 0.00 | 0.00 | 77 | 1015.6 |
| 20260505183412 | 58 | 246 | 3.0 | 7.0 | 0.00 | 0.00 | 0.00 | 77 | 1015.5 |
| 20260505182911 | 58 | 224 | 3.0 | 8.0 | 0.00 | 0.00 | 0.00 | 78 | 1015.5 |
| 20260505182411 | 58 | 240 | 3.0 | 9.0 | 0.00 | 0.00 | 0.00 | 78 | 1015.5 |